Missouri River (Missouri), Boonville (06909000)

StateMissouriLatestUnknown (89100 cfs)
RiverMissouri RiverRatingObservedEstimated
Updated2020-08-07 12:30 (23 minutes ago)Flood - The river is flooding. Obstacles can be treacherous or deadly. The river should be avoided at this stage for casual trips and definitely for the inexperienced. Trips should be attempted only with protective gear and equipment.Flood(none)(none)
Discharge89100 cfs (median: 62200 cfs)High - The river is high and potentially dangerous, especially for the young and / or inexperienced. Normal stream obstacles are sometimes difficult to navigate. Extended distances can be attempted, but canoe travel may not be advisable.High(none)(none)
Height13.73 feetGood - Conditions are ideal for a canoe or kayak. Boats typically will drag on fewer than one-quarter of riffles, if at all, and portages are unnecessary or rare. Normal float lengths can be attempted without a problem.Good(none)(none)
TrendSteady (falling over 24 hours)Low - River is low but can still be floated. Some riffles are okay but most come with significant dragging and might need a portage. Float lengths should be reduced to accommodate low flow, dragging, and portages.Low(none)(none)
USGSExternal icon USGS Site (External icon Google Maps)Poor - River is too low to float comfortably. Most or all riffles will drag or must be portaged and some obstacles (such as slick shelf rock) cause undue problems. Avoid the river at this stage for casual paddling trips.Poor(none)(none)

Trending Data

Plot Image

Trips for Missouri River (Missouri), Boonville (06909000)

DateStartEndDistanceConditionDischargeHeightFishingDetails

A total of 0 rows are displayed.

Condition Descriptions

Fishing Conditions

Fish Species

Notes

Classic Trip List

The classic River Trips application is still available for use. It is updated with the new system using a data retrofit. It is no longer maintained. The original River Trips application is no longer updated (as of 1 Dec 2016) but can be checked for errors or for the condition of the data before it was converted to the new system.

Gauge Data Table

ObservationHeightDischargeMaximum
Discharge
Minimum
Discharge
Mean
Discharge
P05P10P20P25P50
(Median)
P75P80P90P95
2020-08-07 12:30 13.73 89100 269000 (1993) 31500 (2002) 70500 35800 36500 42800 46700 62200 83700 87500 106000 135000
2020-08-07 11:30 13.73 89100 269000 (1993) 31500 (2002) 70500 35800 36500 42800 46700 62200 83700 87500 106000 135000
2020-08-07 10:30 13.76 89400 269000 (1993) 31500 (2002) 70500 35800 36500 42800 46700 62200 83700 87500 106000 135000
2020-08-07 09:30 13.74 89200 269000 (1993) 31500 (2002) 70500 35800 36500 42800 46700 62200 83700 87500 106000 135000
2020-08-07 08:30 13.78 89500 269000 (1993) 31500 (2002) 70500 35800 36500 42800 46700 62200 83700 87500 106000 135000
2020-08-07 07:30 13.72 89000 269000 (1993) 31500 (2002) 70500 35800 36500 42800 46700 62200 83700 87500 106000 135000
2020-08-07 06:30 13.72 89000 269000 (1993) 31500 (2002) 70500 35800 36500 42800 46700 62200 83700 87500 106000 135000
2020-08-07 05:30 13.77 89500 269000 (1993) 31500 (2002) 70500 35800 36500 42800 46700 62200 83700 87500 106000 135000
2020-08-07 04:30 13.72 89000 269000 (1993) 31500 (2002) 70500 35800 36500 42800 46700 62200 83700 87500 106000 135000
2020-08-07 03:30 13.73 89100 269000 (1993) 31500 (2002) 70500 35800 36500 42800 46700 62200 83700 87500 106000 135000
2020-08-07 02:30 13.73 89100 269000 (1993) 31500 (2002) 70500 35800 36500 42800 46700 62200 83700 87500 106000 135000
2020-08-07 01:30 13.76 89400 269000 (1993) 31500 (2002) 70500 35800 36500 42800 46700 62200 83700 87500 106000 135000
2020-08-07 00:30 13.71 88900 269000 (1993) 31500 (2002) 70500 35800 36500 42800 46700 62200 83700 87500 106000 135000
2020-08-06 23:30 13.73 89100 289000 (1993) 31700 (2002) 71400 35700 37000 43200 45600 58400 84600 85500 121000 150000
2020-08-06 22:30 13.69 88700 289000 (1993) 31700 (2002) 71400 35700 37000 43200 45600 58400 84600 85500 121000 150000
2020-08-06 21:30 13.73 89100 289000 (1993) 31700 (2002) 71400 35700 37000 43200 45600 58400 84600 85500 121000 150000
2020-08-06 20:30 13.70 88800 289000 (1993) 31700 (2002) 71400 35700 37000 43200 45600 58400 84600 85500 121000 150000
2020-08-06 19:30 13.73 89100 289000 (1993) 31700 (2002) 71400 35700 37000 43200 45600 58400 84600 85500 121000 150000
2020-08-06 18:30 13.75 89300 289000 (1993) 31700 (2002) 71400 35700 37000 43200 45600 58400 84600 85500 121000 150000
2020-08-06 17:30 13.77 89500 289000 (1993) 31700 (2002) 71400 35700 37000 43200 45600 58400 84600 85500 121000 150000
2020-08-06 16:30 13.80 89700 289000 (1993) 31700 (2002) 71400 35700 37000 43200 45600 58400 84600 85500 121000 150000
2020-08-06 15:30 13.72 92400 289000 (1993) 31700 (2002) 71400 35700 37000 43200 45600 58400 84600 85500 121000 150000
2020-08-06 14:30 13.79 93100 289000 (1993) 31700 (2002) 71400 35700 37000 43200 45600 58400 84600 85500 121000 150000
2020-08-06 13:30 13.85 93600 289000 (1993) 31700 (2002) 71400 35700 37000 43200 45600 58400 84600 85500 121000 150000
2020-08-06 12:30 13.86 93700 289000 (1993) 31700 (2002) 71400 35700 37000 43200 45600 58400 84600 85500 121000 150000
2020-08-06 11:30 13.89 94000 289000 (1993) 31700 (2002) 71400 35700 37000 43200 45600 58400 84600 85500 121000 150000
2020-08-06 10:30 13.89 94000 289000 (1993) 31700 (2002) 71400 35700 37000 43200 45600 58400 84600 85500 121000 150000
2020-08-06 09:30 13.91 94200 289000 (1993) 31700 (2002) 71400 35700 37000 43200 45600 58400 84600 85500 121000 150000
2020-08-06 08:30 13.96 94700 289000 (1993) 31700 (2002) 71400 35700 37000 43200 45600 58400 84600 85500 121000 150000
2020-08-06 07:30 13.91 94200 289000 (1993) 31700 (2002) 71400 35700 37000 43200 45600 58400 84600 85500 121000 150000
2020-08-06 06:30 14.01 95100 289000 (1993) 31700 (2002) 71400 35700 37000 43200 45600 58400 84600 85500 121000 150000
2020-08-06 05:30 14.00 95000 289000 (1993) 31700 (2002) 71400 35700 37000 43200 45600 58400 84600 85500 121000 150000
2020-08-06 04:30 14.06 95600 289000 (1993) 31700 (2002) 71400 35700 37000 43200 45600 58400 84600 85500 121000 150000
2020-08-06 03:30 14.02 95200 289000 (1993) 31700 (2002) 71400 35700 37000 43200 45600 58400 84600 85500 121000 150000
2020-08-06 02:30 14.09 95900 289000 (1993) 31700 (2002) 71400 35700 37000 43200 45600 58400 84600 85500 121000 150000
2020-08-06 01:30 14.12 96200 289000 (1993) 31700 (2002) 71400 35700 37000 43200 45600 58400 84600 85500 121000 150000
2020-08-06 00:30 14.19 96800 289000 (1993) 31700 (2002) 71400 35700 37000 43200 45600 58400 84600 85500 121000 150000

A total of 37 rows are displayed for years 1958 through 2019.